Location: Długosiodło
(52.7596°N, 21.5938°E)
Time: 10:03:34
(UTC+02:00)

ISS - Visible Passes

Search period start: 28 May 2018 00:00
Search period end: 07 June 2018 00:00
Orbit: 402 x 407 km, 51.6° (Epoch: 28 May)

Date Brightness Start Highest point End Pass type
(mag) Time Alt. Az. Time Alt. Az. Time Alt. Az.
28 May -1.2 01:08:18 10° WSW 01:08:21 10° WSW 01:08:21 10° WSW visible
28 May -3.9 22:39:06 10° W 22:42:21 63° S 22:45:05 14° ESE visible
29 May -2.3 00:15:46 10° W 00:17:42 22° SW 00:17:42 22° SW visible
29 May -3.9 21:46:53 10° W 21:50:10 72° S 21:53:26 10° E visible
29 May -3.1 23:23:24 10° W 23:26:25 34° SSW 23:27:05 31° S visible
30 May -3.5 22:31:07 10° W 22:34:17 46° SSW 22:36:31 17° SE visible
31 May -1.5 00:08:19 10° WSW 00:09:08 13° WSW 00:09:08 13° WSW visible
31 May -3.7 21:38:51 10° W 21:42:05 59° SSW 21:45:19 10° ESE visible
31 May -2.4 23:15:36 10° W 23:18:11 21° SSW 23:18:34 21° SSW visible
01 Jun -2.8 22:23:09 10° W 22:26:05 30° SSW 22:28:02 17° SSE visible
02 Jun -1.6 23:08:18 10° WSW 23:09:47 13° SW 23:10:09 12° SSW visible
03 Jun -2.0 22:15:21 10° W 22:17:45 19° SW 22:19:40 12° S visible
05 Jun -1.3 22:08:26 10° SW 22:09:14 11° SW 22:10:02 10° SSW visible
